Tracking 22455 objects as of 9-Mar-2021
HD Live streaming from Space Station
objects crossing your sky now

COSMOS 252 DEB *

Track COSMOS 252 DEB * now!
10-day predictions


NORAD ID: 3686
Int'l Code: 1968-097AD
Perigee: 716.2 km
Apogee: 1,766.1 km
Inclination: 62.3 °
Period: 110.2 minutes
Semi major axis: 7612 km
RCS: 0.0404 m2 (small)
Launch date: November 1, 1968
Source: Commonwealth of Independent States (former USSR) (CIS)
Launch site: TYURATAM MISSILE AND SPACE COMPLEX (TTMTR)

Note: This is SATELLITE DEBRIS
aabbcc
Your satellite tracking list
Your tracking list is empty




NASA's NSSDC Master Catalog

Two Line Element Set (TLE):
1  3686U 68097AD  21067.78016496  .00001079  00000-0  10823-2 0  9993
2  3686  62.2598 308.0417 0689683 100.9450 266.9873 13.07199877444756
Source of the keplerian elements: AFSPC